This is the latest recevied weather packets stored in our database for station/object HP3ICC-14. If no packets are shown the sender has not sent any weather packets the latest 10 day(s).
| Time | Temp. | Humidity | Pressure | Rain* | Wind** | Luminosity | Snow |
|---|---|---|---|---|---|---|---|
| 1777690836 | 26.67° C | 85% | 1009 hPa | 0 mm | - | - | - |
| 1777689696 | 22.22° C | 83% | 1009 hPa | 0 mm | - | - | - |
| 1777689636 | 22.22° C | 83% | 1009 hPa | 0 mm | - | - | - |
| 1777688496 | 22.78° C | 83% | 1009 hPa | 0.25 mm | - | - | - |
| 1777688436 | 22.78° C | 83% | 1009 hPa | 0.25 mm | - | - | - |
| 1777687295 | 23.33° C | 83% | 1009 hPa | 1.02 mm | - | - | - |
| 1777687235 | 23.33° C | 83% | 1009 hPa | 1.02 mm | - | - | - |
| 1777686094 | 23.89° C | 83% | 1009 hPa | 1.02 mm | - | - | - |
| 1777686034 | 23.89° C | 83% | 1009 hPa | 1.02 mm | - | - | - |
| 1777684894 | 24.44° C | 83% | 1009 hPa | 1.78 mm | - | - | - |
| 1777684834 | 24.44° C | 83% | 1009 hPa | 1.78 mm | - | - | - |
| 1777683694 | 25° C | 83% | 1009 hPa | 4.32 mm | - | - | - |
| 1777683633 | 25° C | 83% | 1009 hPa | 4.32 mm | - | - | - |
| 1777682493 | 25.56° C | 83% | 1008 hPa | 4.32 mm | - | - | - |
| 1777682433 | 25.56° C | 83% | 1008 hPa | 4.32 mm | - | - | - |
| 1777681293 | 26.11° C | 83% | 1008 hPa | 1.02 mm | - | - | - |
| 1777681232 | 26.11° C | 83% | 1008 hPa | 1.02 mm | - | - | - |
| 1777680093 | 26.67° C | 83% | 1008 hPa | 4.32 mm | - | - | - |
| 1777680032 | 26.67° C | 83% | 1008 hPa | 4.32 mm | - | - | - |
| 1777678892 | 23.33° C | 47% | 1008 hPa | 5.08 mm | - | - | - |
| 1777678832 | 23.33° C | 47% | 1008 hPa | 5.08 mm | - | - | - |
| 1777677691 | 23.89° C | 47% | 1007 hPa | 5.08 mm | - | - | - |
| 1777677631 | 23.89° C | 47% | 1007 hPa | 5.08 mm | - | - | - |
| 1777676491 | 24.44° C | 47% | 1007 hPa | 5.08 mm | - | - | - |
| 1777676431 | 24.44° C | 47% | 1007 hPa | 5.08 mm | - | - | - |
* Rain latest hour (hover to see other rain measurements)
** Current wind speed in m/s (hover to see current wind gust speed)